Location: Lombard
(41.8800°N, 88.0080°W)
Time: 00:30:34
(UTC-05:00)

DX 1 - Pass Details

Date: 12 June 2023
Orbit: 614 x 623 km, 98.3° (Epoch: 29 September)

Event Time Altitude Azimuth Distance (km) Brightness Sun altitude
Rises 00:08:23 0° 4° (N) 2,916 ? -24.2°
Reaches altitude 10° 00:10:43 10° 356° (N) 2,003 ? -24.3°
Maximum altitude 00:14:41 35° 290° (WNW) 1,002 ? -24.4°
Enters shadow 00:15:39 31° 262° (W) 1,087 ? -24.4°
